Regional Weather Roundup
Issued by NWS

Home | Current Version | Previous Version | Text Only | Print | Product List | Glossary Off
Versions: 1 2 3 4 5 6 7 8 9 10 11 12 13 14 15 16 17 18 19 20 21 22 23 24 25 26 27 28 29 30 31 32 33 34 35 36 37 38 39 40 41 42 43 44 45 46 47 48 49 50

000
ASUS43 KFSD 231610
RWRSD

WEATHER ROUNDUP FOR SOUTH DAKOTA
NATIONAL WEATHER SERVICE SIOUX FALLS SD
1100 AM CDT SAT SEP 23 2017

NOTE: "FAIR" INDICATES FEW OR NO CLOUDS BELOW 12,000 FEET WITH NO
SIGNIFICANT WEATHER AND/OR OBSTRUCTIONS TO VISIBILITY.


SDZ001>005-009-010-012>017-231700-
NORTHWEST AND NORTH CENTRAL SOUTH DAKOTA

CITY           SKY/WX    TMP DP  RH WIND       PRES   REMARKS
BUFFALO          N/A     45  40  82 NE8       30.05S
FAITH            N/A     47  46  97 N15       30.07F
MOBRIDGE       CLOUDY    54  48  80 N14       30.05R
$$

SDZ012>016-024>037-041>051-057-063-072>074-231700-
SOUTHWEST AND SOUTH CENTRAL SOUTH DAKOTA

CITY           SKY/WX    TMP DP  RH WIND       PRES   REMARKS
RAPID CTY ARPT CLOUDY    45  43  93 N15       30.08R
PIERRE         CLOUDY    50  48  93 NE10      30.04R
CUSTER         CLOUDY    45  41  86 NE8       30.03F
ELLSWORTH AFB  CLOUDY    45  45 100 N14       30.07
PHILIP         CLOUDY    51  45  79 N12       30.05S
PINE RIDGE     LGT RAIN  46  45  96 N9        30.04F FOG
SPEARFISH      FAIR      41  41 100 CALM      30.10R
WINNER         CLOUDY    52  50  93 N10       30.02S
$$

SDZ004>011-016>023-039-040-231700-
NORTHEAST SOUTH DAKOTA

CITY           SKY/WX    TMP DP  RH WIND       PRES   REMARKS
ABERDEEN       CLOUDY    52  50  93 N9        30.04F
WATERTOWN      CLOUDY    55  55 100 N12       29.99R
BROOKINGS      CLOUDY    63  58  83 N8        29.99R
SISSETON         N/A     55  53  93 N8        30.04R
$$

SDZ017-020-022-023-036>040-048>070-231700-
SOUTHEAST SOUTH DAKOTA

CITY           SKY/WX    TMP DP  RH WIND       PRES   REMARKS
SIOUX FALLS    CLOUDY    69  66  90 SE6       29.97S
HURON          RAIN      54  53  97 N10       30.02R FOG
CHAMBERLAIN    LGT RAIN  54  54 100 NW7       30.02S
MITCHELL       CLOUDY    56  55  97 NW8       30.01S
YANKTON        CLOUDY    62  57  83 E3        29.97S
$$

ABBREVIATIONS USED IN REMARKS
   TC - TEMPERATURE IN CELSIUS
  WCI - WIND CHILL INDEX
   HX - HEAT INDEX
  VSB - VISIBILITY





USA.gov is the U.S. government's official web portal to all federal, state and local government web resources and services.